Flag for U.S.A. Weather past 2 weeks in Manhattan, Kansas, U.S.A.

Now
40 °F

Clear.


Feels Like: 40 °F
Forecast: 39 / 67 °F
Wind: No wind

Location: Manhattan Municipal Airport

Current Time: Jan 28, 2015 at 3:50:07 AM

Latest Report: Jan 28, 2015 at 2:52 AM


Visibility: 10 mi

Pressure: 29.92 "Hg

Humidity: 73%

Dew point: 32 °F

Location of ManhattanLocation

Historic Weather in Manhattan — Graph

°F

Manhattan temperature yesterday

Maximum temperature yesterday: 65 °F (at 3:52 PM)
Minimum temperature yesterday: 26 °F (at 3:52 AM)
Average temperature yesterday: 44 °F

Past Weeks' High & Low Weather Summary

 TemperatureHumidityPressure
High68 °F (Jan 26, 3:52 PM)96% (Jan 16, 1:52 AM)30.74 "Hg (Jan 16, 1:52 AM)
Low5 °F (Jan 13, 6:52 AM)19% (Jan 16, 2:52 PM)29.72 "Hg (Jan 24, 10:52 PM)
Average36 °F63%30.14 "Hg
* Reported Jan 13 2:52 AM — Jan 28 2:52 AM, Manhattan, Weather by CustomWeather, © 2014

Note: Actual official high and low records may vary slightly from our data, if they occured in-between our weather recording intervals... More about our weather records

Advertising

Manhattan weather history for previous 24 hours

 ConditionsComfort  
Time TempWeatherWind HumidityBarometerVisibility
2:52 AM
Jan 28
40 °FClear.No wind73%29.92 "Hg10 mi
1:52 AM39 °FClear.3 mph76%29.93 "Hg10 mi
12:52 AM42 °FClear.3 mph71%29.95 "Hg10 mi
11:52 PM
Jan 27
45 °FClear.5 mph63%29.96 "Hg10 mi
10:52 PM45 °FClear.6 mph65%29.98 "Hg10 mi
9:52 PM48 °FClear.7 mph61%29.99 "Hg10 mi
8:52 PM50 °FClear.8 mph57%30.01 "Hg10 mi
7:52 PM52 °FClear.5 mph53%30.01 "Hg10 mi
6:52 PM52 °FClear.5 mph50%30.02 "Hg10 mi
5:52 PM58 °FClear.5 mph41%30.00 "Hg10 mi
4:52 PM63 °FSunny.7 mph35%30.00 "Hg10 mi
3:52 PM65 °FSunny.14 mph33%30.01 "Hg10 mi
2:52 PM64 °FSunny.15 mph34%30.03 "Hg10 mi
1:52 PM64 °FSunny.12 mph33%30.05 "Hg10 mi
12:52 PM62 °FSunny.14 mph35%30.08 "Hg10 mi
11:52 AM58 °FSunny.8 mph41%30.12 "Hg10 mi
10:52 AM51 °FSunny.6 mph52%30.16 "Hg10 mi
9:52 AM40 °FSunny.No wind68%30.16 "Hg10 mi
8:52 AM32 °FSunny.No wind82%30.16 "Hg10 mi
7:52 AM26 °FSunny.No wind92%30.15 "Hg10 mi
6:52 AM26 °FClear.No wind88%30.13 "Hg10 mi
5:52 AM26 °FClear.No wind88%30.13 "Hg10 mi
4:52 AM26 °FClear.No wind92%30.11 "Hg10 mi
3:52 AM26 °FClear.No wind92%30.10 "Hg10 mi
Weather by CustomWeather, © 2014

See weather overviewHow to use our weather pages